This is the latest recevied weather packets stored in our database for station/object CE7LGA-10. If no packets are shown the sender has not sent any weather packets the latest 10 day(s).
| Time | Temp. | Humidity | Pressure | Rain* | Wind** | Luminosity | Snow |
|---|---|---|---|---|---|---|---|
| 1777839731 | 16.11° C | 74% | 999.9 hPa | - | - | - | - |
| 1777838831 | 16.11° C | 74% | 999.9 hPa | - | - | - | - |
| 1777837931 | 16.11° C | 75% | 999.9 hPa | - | - | - | - |
| 1777837030 | 16.11° C | 77% | 999.8 hPa | - | - | - | - |
| 1777836130 | 16.11° C | 78% | 1000 hPa | - | - | - | - |
| 1777835230 | 15.56° C | 77% | 999.7 hPa | - | - | - | - |
| 1777834329 | 16.11° C | 79% | 999.5 hPa | - | - | - | - |
| 1777833431 | 16.11° C | 80% | 999.7 hPa | - | - | - | - |
| 1777832531 | 15.56° C | 82% | 999.6 hPa | - | - | - | - |
| 1777831631 | 14.44° C | 76% | 999.5 hPa | - | - | - | - |
| 1777830731 | 13.89° C | 73% | 999.7 hPa | - | - | - | - |
| 1777829831 | 13.89° C | 72% | 999.8 hPa | - | - | - | - |
| 1777828931 | 13.33° C | 73% | 1000.1 hPa | - | - | - | - |
| 1777828031 | 13.33° C | 73% | 1000.1 hPa | - | - | - | - |
| 1777827131 | 13.33° C | 73% | 999.8 hPa | - | - | - | - |
| 1777826231 | 13.33° C | 73% | 999.7 hPa | - | - | - | - |
| 1777825331 | 13.33° C | 72% | 999.7 hPa | - | - | - | - |
| 1777824430 | 13.33° C | 72% | 999.7 hPa | - | - | - | - |
| 1777823530 | 13.33° C | 73% | 999.5 hPa | - | - | - | - |
| 1777822630 | 12.78° C | 74% | 999 hPa | - | - | - | - |
| 1777821730 | 12.78° C | 75% | 998.8 hPa | - | - | - | - |
| 1777820830 | 12.78° C | 79% | 998.6 hPa | - | - | - | - |
| 1777819930 | 12.78° C | 75% | 998.2 hPa | - | - | - | - |
| 1777819030 | 11.67° C | 74% | 998.6 hPa | - | - | - | - |
| 1777818130 | 11.67° C | 73% | 998.2 hPa | - | - | - | - |
* Rain since midnight (hover to see other rain measurements)
** Current wind speed in m/s (hover to see current wind gust speed)